Beaver, WV

4:59 AM EST on December 08, 2016 (GMT -0500)
Raleigh County Memorial

Weather History for KBKW - July, 2014

Change the Weather History Date:

Wednesday, July 23, 2014

  Actual Average Record
Temperature  
Mean Temperature 76 °F 71 °F  
Max Temperature 85 °F 80 °F 94 °F (1933)
Min Temperature 66 °F 61 °F 41 °F (1947)
Degree Days  
Heating Degree Days 0 0  
Month to date heating degree days 15 0  
Since 1 June heating degree days 27 39  
Since 1 July heating degree days 15 0  
Cooling Degree Days 11 6  
Month to date cooling degree days 132 138  
Year to date cooling degree days 378 290  
Since 1 June cooling degree days 303 249  
Growing Degree Days 25 (Base 50)    
Moisture  
Dew Point 66 °F    
Average Humidity 73    
Maximum Humidity 87    
Minimum Humidity 58    
Precipitation  
Precipitation 0.35 in 0.16 in 2.35 in (1983)
Month to date precipitation 1.87 3.68  
Year to date precipitation 19.85 24.84  
Snow  
Snow 0.00 in - - ()
Month to date snowfall 0.0  
Since 1 September snowfall 76.3  
Snow Depth 0.00 in    
Sea Level Pressure  
Sea Level Pressure 30.04 in    
Wind  
Wind Speed 6 mph (SW)    
Max Wind Speed 16 mph    
Max Gust Speed 20 mph    
Visibility 9 miles    
Events Rain    
T = Trace of Precipitation, MM = Missing Value Source: NWS Daily Summary

Daily Weather History Graph

Daily Weather History Graph

Search for Another Location

Airport or City:

Trip Planner

Search our weather history database for the weather conditions in past years. The results will help you decide how hot, cold, wet, or windy it might be!

Date:

Astronomy

Jul. 23, 2014 Rise Set
Actual Time 6:20 AM EDT 8:40 PM EDT
Civil Twilight 5:50 AM EDT 9:10 PM EDT
Nautical Twilight 5:13 AM EDT 9:47 PM EDT
Astronomical Twilight 4:33 AM EDT 10:27 PM EDT
Moon 3:38 AM EDT (7/23) 6:08 PM EDT (7/23)
Length of Visible Light 15h 20m
Length of Day
14h 20m
Waning Crescent, 10% of the Moon is Illuminated
Jul 23
Waning Crescent
Jul 26
New
Aug 3
First Quarter
Aug 10
Full
Aug 17
Last Quarter

Hourly Weather History & Observations

Time (EDT) Temp. Heat Index Dew Point Humidity Pressure Visibility Wind Dir Wind Speed Gust Speed Precip Events Conditions
12:51 AM 71.1 °F - 63.0 °F 75% 30.06 in 10.0 mi SE 5.8 mph - N/A   Partly Cloudy
1:51 AM 70.0 °F - 63.0 °F 78% 30.04 in 10.0 mi SSE 6.9 mph - N/A   Clear
2:51 AM 68.0 °F - 63.0 °F 84% 30.04 in 10.0 mi Calm Calm - N/A   Clear
3:51 AM 66.9 °F - 63.0 °F 87% 30.03 in 10.0 mi Calm Calm - N/A   Clear
4:51 AM 68.0 °F - 63.0 °F 84% 30.02 in 10.0 mi South 5.8 mph - N/A   Clear
5:51 AM 68.0 °F - 63.0 °F 84% 30.02 in 10.0 mi South 3.5 mph - N/A   Clear
6:51 AM 66.9 °F - 63.0 °F 87% 30.05 in 10.0 mi SSW 4.6 mph - N/A   Clear
7:43 AM 70.0 °F - 64.9 °F 84% 30.17 in 10.0 mi SSW 3.5 mph - N/A   Mostly Cloudy
7:51 AM 71.1 °F - 64.9 °F 81% 30.06 in 10.0 mi SSW 4.6 mph - N/A   Mostly Cloudy
8:05 AM 71.1 °F - 64.9 °F 81% 30.18 in 10.0 mi SW 5.8 mph - N/A   Overcast
8:51 AM 73.0 °F - 66.0 °F 79% 30.06 in 10.0 mi SSW 6.9 mph - N/A   Partly Cloudy
9:51 AM 73.9 °F - 66.0 °F 76% 30.05 in 10.0 mi SW 8.1 mph - N/A   Mostly Cloudy
10:01 AM 75.0 °F - 66.9 °F 76% 30.16 in 10.0 mi SW 8.1 mph - N/A   Mostly Cloudy
10:44 AM 77.0 °F - 66.9 °F 71% 30.15 in 10.0 mi West 9.2 mph - N/A   Mostly Cloudy
10:51 AM 77.0 °F - 66.9 °F 71% 30.04 in 10.0 mi WSW 8.1 mph - N/A   Mostly Cloudy
11:23 AM 75.0 °F - 68.0 °F 79% 30.15 in 10.0 mi SW 8.1 mph - N/A   Overcast
11:51 AM 75.0 °F - 66.9 °F 76% 30.04 in 10.0 mi SW 9.2 mph - 0.00 in   Mostly Cloudy
12:02 PM 75.9 °F - 68.0 °F 76% 30.15 in 10.0 mi WSW 8.1 mph - N/A   Mostly Cloudy
12:12 PM 77.0 °F - 68.0 °F 74% 30.14 in 10.0 mi SW 6.9 mph - N/A   Mostly Cloudy
1:51 PM 81.0 °F 83.8 °F 68.0 °F 65% 29.99 in 10.0 mi SW 6.9 mph - N/A   Scattered Clouds
2:51 PM 82.9 °F 85.4 °F 66.9 °F 58% 29.96 in 10.0 mi SW 11.5 mph - N/A   Scattered Clouds
3:51 PM 82.0 °F 84.1 °F 66.0 °F 58% 29.95 in 10.0 mi West 9.2 mph - N/A   Scattered Clouds
4:51 PM 80.1 °F 82.3 °F 66.9 °F 64% 29.94 in 10.0 mi WSW 8.1 mph - N/A   Clear
5:51 PM 78.1 °F - 68.0 °F 71% 29.94 in 10.0 mi WSW 5.8 mph - 0.00 in   Partly Cloudy
6:51 PM 77.0 °F - 69.1 °F 76% 29.93 in 10.0 mi WSW 6.9 mph - 0.00 in   Scattered Clouds
7:51 PM 75.9 °F - 69.1 °F 79% 29.91 in 10.0 mi SW 5.8 mph - N/A   Mostly Cloudy
8:39 PM 75.0 °F - 69.1 °F 82% 30.03 in 10.0 mi SW 5.8 mph - N/A   Mostly Cloudy
8:51 PM 73.9 °F - 69.1 °F 85% 29.92 in 10.0 mi WSW 9.2 mph - N/A   Mostly Cloudy
9:51 PM 72.0 °F - 66.9 °F 84% 29.93 in 10.0 mi SSW 6.9 mph - N/A   Clear
10:44 PM 71.6 °F - 66.2 °F 83% 30.05 in 10.0 mi NNW 8.1 mph - N/A   Overcast
10:51 PM 71.6 °F - 64.4 °F 78% 30.06 in 10.0 mi North 10.4 mph - N/A   Overcast
10:57 PM 70.0 °F - 64.9 °F 84% 30.06 in 2.0 mi NNE 16.1 mph - 0.00 in Rain Rain
11:04 PM 68.0 °F - 64.9 °F 90% 30.06 in 1.0 mi NE 9.2 mph - 0.29 in Rain Heavy Rain
11:09 PM 68.0 °F - 66.0 °F 93% 30.06 in 3.0 mi North 9.2 mph - 0.29 in Rain Light Rain
11:12 PM 68.0 °F - 66.0 °F 93% 30.07 in 6.0 mi Variable 4.6 mph - 0.29 in Rain Light Rain
11:20 PM 68.0 °F - 66.0 °F 93% 30.07 in 6.0 mi NNW 4.6 mph - 0.30 in Rain Light Rain
11:33 PM 68.0 °F - 66.0 °F 93% 30.07 in 3.0 mi NE 4.6 mph - 0.35 in Rain Heavy Rain
11:51 PM 68.0 °F - 66.0 °F 93% 29.97 in 6.0 mi NE 5.8 mph - 0.35 in Rain Light Rain